Regional Weather Roundup
Issued by NWS State College, PA

Home | Current Version | Previous Version | Text Only | Print | Product List | Glossary On
Versions: 1 2 3 4 5 6 7 8 9 10 11 12 13 14 15 16 17 18 19 20 21 22 23 24 25 26 27 28 29 30 31 32 33 34 35 36 37 38 39 40 41 42 43 44 45 46 47 48 49 50
000
ASUS41 KCTP 251910
RWRCTP

REGIONAL WEATHER ROUNDUP
NATIONAL WEATHER SERVICE STATE COLLEGE PA
300 PM EDT SAT APR 25 2015

Note: "fair" indicates few or no clouds below 12,000 feet with no
significant weather and/or obstructions to visibility.

* = STATION THAT DOES NOT REPORT PRECIPITATION /E.G. RAIN...SNOW...ETC/
    THUNDER OR FOG.

PAZ002>004-007>009-013>016-020>023-029>032-252000-
WESTERN PENNSYLVANIA

CITY           SKY/WX    TMP DP  RH WIND       PRES   REMARKS
ERIE           PTSUNNY   42  22  44 NE15      29.84F
MEADVILLE      CLOUDY    50  25  37 NE7       29.80F
FRANKLIN*      CLOUDY    48  19  32 N7        29.81F
NEW CASTLE     FAIR      53  20  27 CALM      29.79F
BEAVER COUNTY  SUNNY     52  21  30 SE6       29.78F
BUTLER*        CLOUDY    50  16  25 SE7       29.78F
PITTSBURGH INT CLOUDY    51  28  41 E9        29.77F
PITTSBURGH     CLOUDY    50  22  33 E6        29.76F
INDIANA*       SUNNY     52  14  22 SE5       29.82F
LATROBE        PTSUNNY   50  30  46 VRB6      29.80F
WASHINGTON CO* CLOUDY    52  30  43 NE9       29.77F
$$

PAZ004>006-010>012-017>019-024>028-033>037-041-042-045-046-049>053-252000-
CENTRAL PENNSYLVANIA

CITY           SKY/WX    TMP DP  RH WIND       PRES   REMARKS
BRADFORD       PTSUNNY   47  18  31 CALM      29.78F
DUBOIS         PTSUNNY   52  14  22 CALM      29.77F
CLEARFIELD     PTSUNNY   51  19  28 E8        29.78F
JOHNSTOWN      PTSUNNY   49  24  37 E5        29.76F
ALTOONA        PTSUNNY   49  12  22 CALM      29.80F
STATE COLLEGE  NOT AVBL
WILLIAMSPORT   MOSUNNY   53  23  31 VRB7      29.79F
SELINSGROVE    MOSUNNY   53  27  36 VRB5      29.82F
FT INDIANTOWN  MOSUNNY   56  21  26 SW3       29.79F
CAPITAL CITY   SUNNY     52  21  29 NW5       29.81F
HARRISBURG     PTSUNNY   52  21  29 NW7       29.81F
YORK           SUNNY     53  22  29 VRB7      29.82F
$$

PAZ038>040-043-044-047-048-054-055-060>062-067>071-252000-
EASTERN PENNSYLVANIA

CITY           SKY/WX    TMP DP  RH WIND       PRES   REMARKS
SCRANTON       SUNNY     54  25  32 NW10      29.77F
MOUNT POCONO   SUNNY     50  23  34 NW12      29.75F
ALLENTOWN      SUNNY     56  25  30 SW6       29.78F
QUAKERTOWN*    CLEAR     54  27  35 W3        29.80F
READING        SUNNY     55  25  31 SW5       29.79F
LANCASTER      SUNNY     52  26  36 W8        29.81F
COATESVILLE    CLEAR     52  25  35 W10       29.81F
POTTSTOWN      SUNNY     53  25  33 NW10      29.80F
BLUE BELL      SUNNY     55  27  33 CALM      29.79F
DOYLESTOWN     SUNNY     54  25  32 NW8       29.78F
WILLOW GROVE   NOT AVBL
NORTH PHILA    SUNNY     57  23  26 NW12      29.81F
PHILADELPHIA   PTSUNNY   56  23  27 SW15G21   29.81F
$$


USA.gov is the U.S. government's official web portal to all federal, state and local government web resources and services.